Precipitable_Water
1.08 1.19 1.18 1.13 1.04 0.97 0.94 0.92 0.92 0.93 0.93 0.87 0.87 0.85 0.84 0.81 0.79 0.77 0.75 0.75 0.76 0.79 0.80 0.78 0.74 0.71 0.68 0.65 0.64 0.65 0.65 0.64 0.62 0.75 0.87 0.97 0.99 0.96 0.90 0.88 0.81 0.78 0.83
1.18 1.22 1.22 1.15 1.07 1.01 0.99 0.95 0.93 0.93 0.90 0.89 0.88 0.85 0.83 0.81 0.79 0.77 0.76 0.78 0.80 0.82 0.81 0.79 0.75 0.72 0.69 0.67 0.64 0.67 0.68 0.63 0.67 0.78 0.85 0.86 0.91 0.88 0.87 0.84 0.78 0.72 0.72
1.22 1.28 1.23 1.15 1.08 1.04 1.01 1.00 0.97 0.96 0.92 0.94 0.91 0.89 0.87 0.81 0.78 0.78 0.78 0.81 0.83 0.84 0.83 0.80 0.78 0.75 0.72 0.69 0.68 0.69 0.71 0.66 0.68 0.71 0.78 0.80 0.78 0.82 0.84 0.81 0.82 0.78 0.72
1.28 1.29 1.26 1.21 1.16 1.09 1.04 1.02 1.00 0.96 0.96 0.93 0.92 0.90 0.84 0.83 0.83 0.82 0.82 0.84 0.85 0.85 0.83 0.81 0.79 0.76 0.75 0.73 0.69 0.73 0.71 0.63 0.63 0.70 0.72 0.74 0.73 0.81 0.85 0.83 0.81 0.76 0.76
1.29 1.29 1.30 1.26 1.17 1.10 1.04 1.00 0.98 0.94 0.90 0.89 0.90 0.88 0.85 0.85 0.84 0.83 0.83 0.85 0.86 0.87 0.86 0.85 0.82 0.79 0.76 0.76 0.74 0.77 0.74 0.64 0.60 0.64 0.65 0.68 0.68 0.75 0.81 0.80 0.78 0.72 0.72
1.27 1.33 1.32 1.24 1.14 1.06 1.00 0.98 0.92 0.88 0.86 0.86 0.86 0.85 0.85 0.82 0.81 0.82 0.84 0.88 0.90 0.91 0.91 0.89 0.86 0.84 0.80 0.76 0.76 0.75 0.72 0.66 0.57 0.61 0.63 0.65 0.66 0.75 0.74 0.77 0.76 0.72 0.74
1.25 1.30 1.27 1.19 1.09 1.00 0.95 0.90 0.83 0.82 0.84 0.83 0.83 0.84 0.83 0.84 0.85 0.87 0.88 0.89 0.91 0.90 0.90 0.86 0.84 0.82 0.78 0.73 0.70 0.68 0.65 0.59 0.52 0.56 0.61 0.63 0.69 0.79 0.82 0.77 0.74 0.72 0.73
1.21 1.24 1.19 1.11 1.00 0.93 0.84 0.78 0.79 0.78 0.78 0.78 0.79 0.81 0.86 0.90 0.91 0.90 0.90 0.92 0.92 0.89 0.85 0.80 0.76 0.72 0.69 0.63 0.60 0.59 0.59 0.51 0.46 0.55 0.58 0.60 0.66 0.73 0.81 0.83 0.83 0.76 0.82
1.17 1.08 0.98 0.93 0.85 0.81 0.77 0.77 0.76 0.77 0.79 0.82 0.79 0.86 0.91 0.91 0.89 0.88 0.87 0.86 0.86 0.81 0.79 0.77 0.72 0.66 0.62 0.58 0.56 0.55 0.55 0.45 0.39 0.50 0.54 0.56 0.59 0.65 0.74 0.79 0.82 0.84 0.83
1.08 1.00 0.88 0.81 0.78 0.76 0.76 0.79 0.81 0.83 0.86 0.85 0.85 0.87 0.86 0.82 0.79 0.80 0.80 0.79 0.76 0.71 0.70 0.66 0.64 0.59 0.55 0.50 0.48 0.48 0.44 0.39 0.37 0.36 0.45 0.54 0.56 0.58 0.61 0.62 0.67 0.75 0.78
1.06 0.97 0.86 0.82 0.84 0.90 0.93 0.95 0.91 0.88 0.83 0.80 0.82 0.83 0.79 0.78 0.76 0.75 0.74 0.70 0.67 0.64 0.61 0.59 0.56 0.50 0.47 0.43 0.42 0.42 0.39 0.37 0.35 0.33 0.33 0.42 0.50 0.55 0.56 0.51 0.54 0.60 0.69
1.03 0.95 0.92 0.94 0.95 0.96 0.96 0.93 0.87 0.83 0.80 0.77 0.78 0.79 0.77 0.75 0.72 0.68 0.61 0.60 0.58 0.57 0.54 0.51 0.48 0.45 0.41 0.38 0.36 0.36 0.34 0.33 0.32 0.31 0.30 0.36 0.43 0.47 0.50 0.46 0.43 0.45 0.55
1.04 1.00 0.95 0.93 0.94 0.93 0.91 0.90 0.85 0.81 0.78 0.75 0.77 0.76 0.74 0.68 0.61 0.58 0.57 0.54 0.51 0.49 0.45 0.43 0.40 0.38 0.35 0.33 0.31 0.31 0.31 0.31 0.32 0.32 0.31 0.35 0.38 0.42 0.43 0.45 0.41 0.39 0.42
1.06 1.00 0.95 0.94 0.94 0.95 0.95 0.90 0.83 0.75 0.70 0.70 0.73 0.72 0.67 0.60 0.56 0.55 0.53 0.50 0.47 0.44 0.41 0.39 0.37 0.35 0.33 0.32 0.30 0.29 0.29 0.29 0.30 0.32 0.32 0.34 0.37 0.42 0.42 0.40 0.39 0.40 0.39
1.06 1.04 0.99 0.98 0.98 0.96 0.92 0.86 0.75 0.70 0.68 0.69 0.73 0.68 0.66 0.59 0.55 0.52 0.50 0.48 0.44 0.40 0.37 0.36 0.34 0.32 0.31 0.29 0.27 0.26 0.25 0.26 0.26 0.29 0.30 0.32 0.35 0.37 0.46 0.42 0.39 0.41 0.39
1.13 1.06 1.06 1.00 0.97 0.94 0.90 0.76 0.70 0.68 0.68 0.72 0.70 0.68 0.63 0.59 0.55 0.52 0.49 0.45 0.40 0.37 0.36 0.34 0.31 0.29 0.27 0.25 0.23 0.22 0.21 0.22 0.22 0.24 0.24 0.25 0.29 0.34 0.42 0.45 0.41 0.40 0.39
1.10 1.05 0.97 0.94 0.96 0.92 0.79 0.72 0.71 0.69 0.69 0.70 0.67 0.66 0.63 0.59 0.54 0.50 0.45 0.41 0.37 0.34 0.31 0.28 0.26 0.26 0.24 0.23 0.21 0.21 0.20 0.21 0.22 0.22 0.23 0.24 0.25 0.29 0.36 0.48 0.42 0.43 0.41
1.03 0.99 0.99 1.01 0.93 0.83 0.75 0.68 0.66 0.64 0.65 0.66 0.66 0.64 0.60 0.55 0.50 0.45 0.42 0.36 0.32 0.28 0.26 0.24 0.23 0.22 0.22 0.21 0.21 0.20 0.19 0.21 0.23 0.22 0.24 0.24 0.26 0.27 0.31 0.42 0.45 0.42 0.44
1.05 1.01 0.96 0.92 0.82 0.69 0.65 0.62 0.61 0.63 0.64 0.65 0.63 0.58 0.53 0.50 0.46 0.41 0.33 0.29 0.27 0.26 0.24 0.23 0.23 0.24 0.22 0.21 0.21 0.20 0.19 0.20 0.22 0.24 0.24 0.26 0.28 0.28 0.31 0.38 0.43 0.42 0.38
1.02 0.94 0.87 0.77 0.64 0.61 0.59 0.59 0.59 0.60 0.57 0.55 0.52 0.48 0.46 0.42 0.36 0.31 0.28 0.25 0.25 0.24 0.24 0.24 0.24 0.24 0.23 0.22 0.21 0.19 0.18 0.20 0.21 0.24 0.24 0.26 0.29 0.31 0.31 0.33 0.35 0.35 0.39
0.87 0.81 0.71 0.59 0.58 0.57 0.56 0.54 0.54 0.51 0.49 0.47 0.44 0.39 0.33 0.29 0.27 0.26 0.25 0.24 0.24 0.23 0.23 0.23 0.23 0.22 0.22 0.23 0.20 0.17 0.17 0.18 0.22 0.24 0.24 0.24 0.27 0.30 0.32 0.32 0.33 0.33 0.32
0.78 0.65 0.57 0.56 0.55 0.55 0.53 0.51 0.49 0.47 0.44 0.38 0.32 0.28 0.25 0.24 0.24 0.24 0.23 0.23 0.23 0.21 0.20 0.21 0.22 0.21 0.22 0.23 0.19 0.17 0.14 0.15 0.18 0.17 0.24 0.24 0.25 0.27 0.30 0.31 0.32 0.31 0.32
0.60 0.53 0.55 0.55 0.54 0.52 0.50 0.49 0.46 0.41 0.33 0.26 0.23 0.21 0.22 0.21 0.21 0.22 0.21 0.22 0.21 0.21 0.20 0.22 0.23 0.22 0.20 0.22 0.23 0.19 0.13 0.12 0.14 0.15 0.14 0.18 0.21 0.23 0.26 0.29 0.31 0.31 0.31
0.53 0.54 0.54 0.53 0.51 0.51 0.48 0.43 0.35 0.27 0.20 0.19 0.19 0.19 0.19 0.19 0.19 0.20 0.20 0.21 0.21 0.21 0.21 0.21 0.23 0.24 0.24 0.22 0.24 0.24 0.23 0.19 0.13 0.10 0.13 0.17 0.19 0.20 0.23 0.24 0.25 0.26 0.28
0.54 0.54 0.54 0.51 0.51 0.47 0.43 0.35 0.27 0.20 0.18 0.18 0.17 0.16 0.17 0.18 0.18 0.19 0.20 0.21 0.21 0.22 0.23 0.24 0.23 0.23 0.25 0.24 0.23 0.22 0.21 0.18 0.17 0.13 0.10 0.11 0.19 0.21 0.22 0.23 0.24 0.24 0.24
0.56 0.55 0.53 0.49 0.45 0.41 0.35 0.28 0.21 0.17 0.15 0.14 0.14 0.14 0.15 0.16 0.17 0.18 0.20 0.21 0.23 0.23 0.24 0.25 0.25 0.23 0.22 0.22 0.24 0.23 0.19 0.17 0.16 0.16 0.15 0.15 0.18 0.22 0.24 0.26 0.26 0.26 0.25
Wind_Speed
2 2 3 4 5 6 7 8 9 10 11 13 14 15 16 18 19 20 21 22 22 23 23 23 24 24 24 24 23 23 22 22 22 21 20 20 20 21 21 21 21 22 22
2 3 4 5 6 7 8 9 10 11 13 14 15 17 18 19 20 21 22 23 23 24 24 24 25 24 25 25 25 25 24 24 23 23 23 23 23 23 24 23 24 24 24
2 4 5 6 7 9 9 10 12 13 14 15 17 18 19 21 22 22 23 24 24 24 25 25 25 26 27 26 26 26 26 26 25 25 25 25 26 26 26 26 26 25 26
3 5 6 7 8 10 11 11 13 14 16 17 18 19 20 21 22 23 25 25 25 26 26 27 27 27 27 27 27 27 27 27 27 27 27 27 28 28 28 28 28 27 26
4 6 7 9 10 11 12 13 14 15 17 18 19 20 22 23 24 25 26 26 26 27 28 28 28 28 28 28 29 29 29 29 29 29 29 30 30 31 30 30 29 27 27
6 7 8 9 10 12 13 14 15 17 18 20 21 22 24 25 26 26 27 27 28 28 29 29 29 29 31 31 31 32 31 31 31 31 31 31 32 32 32 30 30 29 28
7 9 9 11 12 13 14 15 17 18 19 21 23 24 25 26 27 28 28 29 29 30 30 31 31 32 32 33 33 33 33 32 32 31 31 32 31 31 30 30 30 30 29
8 9 11 12 13 14 15 16 18 19 21 22 24 24 26 27 28 29 30 31 31 31 31 32 32 32 32 33 33 33 33 32 32 32 32 32 31 31 31 30 30 30 29
9 11 12 12 13 14 16 18 19 21 22 24 24 26 27 29 30 30 31 31 31 33 34 34 34 34 34 34 34 34 35 35 34 34 33 33 33 33 31 31 30 30 29
10 11 12 13 14 15 16 18 19 21 23 24 25 27 29 30 31 32 32 33 34 34 34 34 34 34 34 35 36 36 36 36 35 35 35 34 34 34 34 33 32 31 31
11 12 11 12 13 15 17 19 21 23 24 26 27 28 29 31 32 33 34 34 34 34 34 34 35 36 36 37 37 37 37 36 36 36 35 35 35 35 34 33 34 33 33
11 11 11 13 14 17 19 21 23 25 26 27 28 29 31 33 34 33 33 34 34 35 35 36 37 38 38 38 38 38 38 37 36 36 36 35 35 35 35 34 33 34 34
10 10 12 14 16 19 21 23 25 27 28 29 29 31 32 33 33 34 34 35 36 37 38 38 39 39 39 39 39 39 38 38 37 37 37 36 35 35 35 35 33 32 33
10 12 14 16 19 21 22 26 28 29 29 28 30 31 32 33 34 35 36 37 38 39 40 40 40 40 41 41 40 40 39 39 39 38 38 37 36 35 35 34 32 31 31
12 14 16 18 21 23 26 29 29 29 29 30 31 32 33 34 36 37 38 39 40 40 41 41 41 41 41 41 40 40 39 39 38 37 37 36 35 34 33 32 30 29 29
13 16 19 20 22 25 29 30 29 30 31 32 33 33 35 37 38 39 39 40 41 42 42 41 41 40 39 39 38 37 37 36 35 34 34 33 33 33 32 31 30 29 27
15 18 18 22 25 28 31 31 32 33 33 34 35 36 38 39 39 40 41 42 42 42 41 41 40 39 38 37 36 36 36 35 33 32 31 31 31 30 30 30 28 27 26
16 18 21 24 27 30 32 32 33 34 35 36 37 38 40 40 41 41 42 42 42 42 41 41 39 38 37 37 37 36 37 34 32 31 30 29 28 28 29 29 29 28 27
17 20 23 26 30 31 31 33 33 34 35 37 38 39 41 41 41 42 42 42 42 42 41 40 39 38 38 38 38 37 37 34 33 31 30 28 27 26 27 28 28 27 26
19 21 25 28 29 30 31 32 33 35 37 38 39 40 41 41 42 42 42 42 42 41 41 40 40 39 39 39 38 37 36 33 32 30 29 29 27 26 26 27 27 28 27
20 24 26 27 29 30 32 33 35 36 38 39 40 40 41 41 41 41 42 42 42 41 41 41 40 39 38 37 37 35 31 31 27 29 30 27 27 27 27 28 28 29 29
22 25 26 27 29 31 33 35 36 37 38 38 39 40 41 41 42 42 41 41 41 41 41 39 38 36 35 35 33 30 28 25 24 29 26 28 27 27 28 28 29 30 30
23 24 25 27 30 32 35 36 37 37 38 39 40 40 41 42 42 41 41 41 41 39 38 37 35 34 32 31 29 27 26 25 28 23 28 26 26 27 28 29 30 31 31
23 24 26 29 32 33 36 36 36 37 38 39 40 40 41 41 41 41 40 39 38 37 36 34 33 32 31 30 29 27 27 27 26 25 23 25 27 26 27 27 29 30 32
23 24 28 30 32 35 36 36 37 38 39 40 40 40 40 41 41 40 38 38 37 35 34 33 32 31 31 30 29 28 28 28 29 28 28 26 26 26 27 28 28 28 30
24 26 28 31 34 35 35 36 38 39 39 40 40 40 40 40 39 38 38 37 36 34 33 33 32 32 32 32 31 31 31 32 32 31 30 29 28 27 27 27 28 28 28
Wind_Direction
334 330 328 331 330 329 329 328 326 326 324 323 322 322 321 320 319 318 317 316 315 315 313 312 311 309 307 305 304 301 299 296 293 289 283 283 282 282 281 281 280 278 276
329 325 323 326 326 326 324 324 323 322 321 320 320 320 319 319 318 318 317 316 315 314 313 311 310 308 306 304 302 300 297 295 291 286 282 281 282 281 280 281 279 278 277
334 330 322 323 324 324 323 321 321 320 320 319 318 318 318 318 317 318 317 317 316 315 314 313 310 308 306 304 301 299 296 294 290 286 282 281 281 281 281 280 279 278 277
327 329 326 325 324 323 323 321 320 319 318 318 318 318 319 319 318 318 317 316 314 313 312 311 310 308 307 304 301 299 298 295 289 285 283 282 281 281 280 280 278 277 276
326 329 326 324 322 321 319 318 317 318 317 317 317 318 318 318 317 316 316 314 313 311 311 310 308 307 306 303 301 298 297 294 290 285 283 282 281 281 280 279 276 276 276
322 324 323 325 323 320 318 317 316 316 316 316 316 315 315 315 315 315 314 314 313 311 310 309 307 305 304 302 299 297 296 293 290 285 283 282 281 280 279 277 275 275 274
313 319 319 320 319 318 317 316 315 316 316 316 316 315 316 315 314 313 313 313 312 310 309 308 306 305 303 302 300 298 296 294 290 285 283 282 282 280 279 276 275 273 272
311 314 317 316 317 318 317 317 317 316 316 316 315 315 315 316 315 314 313 312 311 309 309 308 307 306 305 303 301 298 296 294 291 286 284 282 281 279 278 276 276 272 269
313 317 316 317 317 318 318 317 317 317 316 315 315 315 315 315 315 314 313 312 311 310 308 307 306 305 304 303 301 299 296 293 291 287 283 281 279 277 276 276 276 271 269
314 316 316 316 318 319 319 320 319 318 317 317 317 316 315 315 315 314 313 311 310 310 309 308 307 306 305 304 302 299 297 293 290 288 284 280 279 277 275 274 273 271 268
316 317 318 321 323 324 324 322 322 320 319 317 316 316 316 316 315 314 313 312 311 311 310 308 307 306 304 303 302 299 297 294 290 288 284 281 278 276 275 273 271 268 267
313 317 321 324 324 324 324 323 322 322 320 318 317 317 316 317 316 315 315 313 312 311 309 308 307 306 304 303 301 299 296 293 291 288 284 282 278 275 274 272 271 269 266
311 312 316 319 322 322 322 323 322 321 320 318 317 317 316 317 318 317 315 314 313 311 309 308 307 306 304 303 301 299 296 293 290 287 284 281 278 274 272 271 269 268 266
307 309 313 318 319 320 320 322 320 319 319 318 317 317 317 317 317 317 315 314 313 311 310 308 307 306 304 303 301 298 296 292 289 286 284 281 277 273 270 269 267 265 265
305 310 313 314 317 318 319 320 319 319 319 317 318 317 317 317 317 316 316 315 314 312 311 308 307 306 305 303 302 299 296 294 290 287 284 280 276 272 266 265 264 263 263
307 311 313 315 317 318 319 320 319 319 319 318 318 317 317 317 317 317 316 316 315 313 312 310 308 307 305 304 303 301 299 296 292 288 285 281 274 270 265 261 261 260 261
307 314 316 317 317 318 319 320 320 320 320 319 318 318 318 317 317 317 316 315 315 314 312 311 309 308 306 305 304 302 300 296 292 288 287 282 275 267 262 257 257 258 258
312 317 318 318 319 321 321 321 321 321 321 319 318 318 318 317 317 317 316 316 315 314 313 312 309 308 306 305 304 302 300 295 290 289 286 283 277 267 260 257 255 257 255
315 317 318 319 321 322 322 322 323 323 323 322 320 319 318 317 316 316 316 316 315 314 313 312 310 307 306 305 304 302 300 293 289 284 284 280 276 268 260 256 253 252 251
319 321 320 321 322 323 324 324 324 323 323 323 322 321 320 318 317 316 316 316 316 314 313 312 310 308 306 304 304 302 299 293 287 282 284 278 273 267 261 255 252 251 251
322 322 322 324 325 326 325 324 323 323 322 322 323 322 322 321 320 318 317 317 317 315 314 313 311 309 308 307 305 304 302 297 286 285 283 278 271 266 261 257 253 252 250
323 324 325 327 328 328 327 327 325 324 323 323 323 324 323 323 322 320 319 318 318 317 316 315 314 312 310 310 308 307 302 300 295 293 281 278 270 267 261 258 255 252 251
325 326 327 329 329 329 329 328 327 326 325 325 325 325 325 324 323 322 321 320 319 319 319 318 317 315 314 314 312 310 306 300 301 294 289 279 272 269 262 260 256 253 251
327 328 329 330 330 330 330 330 330 329 328 327 327 326 326 326 325 324 324 323 322 322 322 321 320 317 315 313 312 308 305 303 301 297 291 285 278 269 265 262 258 255 252
329 329 329 330 331 331 332 332 332 332 330 329 329 329 328 328 328 327 327 326 325 324 323 322 322 320 317 313 310 308 305 303 299 294 289 286 280 272 267 263 259 256 253
330 330 331 332 333 333 333 333 334 333 332 332 332 332 331 331 330 330 329 327 326 325 324 323 321 319 318 313 309 306 303 301 298 293 287 282 278 274 269 264 259 256 253